Weather History for KDAW - April, 2013

Change the Weather History Date:

Saturday, April 27, 2013

  Actual Average (KSFM) Record (KSFM)
Temperature  
Mean Temperature 48 °F -  
Max Temperature 62 °F 58 °F 69 °F (2011)
Min Temperature 34 °F 34 °F 26 °F (1997)
Degree Days  
Heating Degree Days 18    
Moisture  
Dew Point 33 °F    
Average Humidity 55    
Maximum Humidity 89    
Minimum Humidity 32    
Precipitation  
Precipitation 0.00 in - - ()
Sea Level Pressure  
Sea Level Pressure 30.36 in    
Wind  
Wind Speed 4 mph (West)    
Max Wind Speed 10 mph    
Max Gust Speed 18 mph    
Visibility 10 miles    
Events      
Averages and records for this station are not official NWS values.
T = Trace of Precipitation, MM = Missing Value Source: NWS Daily Summary

Daily Weather History Graph

Daily Weather History Graph

Search for Another Location

Airport or City:

Trip Planner

Search our weather history database for the weather conditions in past years. The results will help you decide how hot, cold, wet, or windy it might be!

Date:

Astronomy

Apr. 27, 2013 Rise Set
Actual Time 5:42 AM EDT 7:40 PM EDT
Civil Twilight 5:11 AM EDT 8:11 PM EDT
Nautical Twilight 4:33 AM EDT 8:49 PM EDT
Astronomical Twilight 3:52 AM EDT 9:31 PM EDT
Moon 10:09 PM EDT (4/27) 6:55 AM EDT (4/27)
Length of Visible Light 15h 00m
Length of Day
13h 58m
Waning Gibbous, 95% of the Moon is Illuminated
Apr 27
Waning Gibbous
May 2
Last Quarter
May 9
New
May 18
First Quarter
May 25
Full

Hourly Weather History & Observations

Time (EDT) Temp. Windchill Dew Point Humidity Pressure Visibility Wind Dir Wind Speed Gust Speed Precip Events Conditions
12:51 AM 37.9 °F - 35.1 °F 89% 30.42 in 10.0 mi Calm Calm - N/A   Partly Cloudy
1:51 AM 37.9 °F 34.4 °F 33.1 °F 83% 30.41 in 10.0 mi NW 4.6 mph - N/A   Scattered Clouds
2:51 AM 36.0 °F 31.1 °F 32.0 °F 86% 30.40 in 10.0 mi NW 5.8 mph - N/A   Partly Cloudy
3:51 AM 36.0 °F 32.1 °F 30.9 °F 82% 30.40 in 10.0 mi NW 4.6 mph - N/A   Clear
4:51 AM 34.0 °F 28.0 °F 30.0 °F 85% 30.39 in 10.0 mi NW 6.9 mph - N/A   Clear
5:51 AM 35.1 °F 29.3 °F 30.0 °F 82% 30.39 in 10.0 mi NW 6.9 mph - N/A   Clear
6:51 AM 37.9 °F 33.5 °F 32.0 °F 79% 30.40 in 10.0 mi NW 5.8 mph - N/A   Clear
7:51 AM 46.9 °F - 33.1 °F 59% 30.40 in 10.0 mi North 4.6 mph - N/A   Clear
8:51 AM 53.1 °F - 36.0 °F 52% 30.40 in 10.0 mi WNW 3.5 mph - N/A   Clear
9:51 AM 57.9 °F - 34.0 °F 41% 30.39 in 10.0 mi Calm Calm - N/A   Clear
10:51 AM 59.0 °F - 30.9 °F 35% 30.39 in 10.0 mi Calm Calm - N/A   Clear
11:51 AM 60.1 °F - 30.0 °F 32% 30.38 in 10.0 mi Variable 3.5 mph - N/A   Partly Cloudy
12:51 PM 61.0 °F - 35.1 °F 38% 30.36 in 10.0 mi Variable 6.9 mph - N/A   Partly Cloudy
1:51 PM 60.1 °F - 33.1 °F 36% 30.34 in 10.0 mi South 5.8 mph 16.1 mph N/A   Mostly Cloudy
2:51 PM 61.0 °F - 34.0 °F 36% 30.32 in 10.0 mi SE 5.8 mph - N/A   Mostly Cloudy
3:51 PM 61.0 °F - 33.1 °F 35% 30.30 in 10.0 mi SSE 10.4 mph - N/A   Scattered Clouds
4:51 PM 60.1 °F - 33.1 °F 36% 30.29 in 10.0 mi SE 10.4 mph 18.4 mph N/A   Partly Cloudy
5:51 PM 57.9 °F - 33.1 °F 39% 30.29 in 10.0 mi ESE 8.1 mph - N/A   Clear
6:51 PM 55.9 °F - 33.1 °F 42% 30.29 in 10.0 mi SSE 6.9 mph - N/A   Clear
7:51 PM 53.1 °F - 32.0 °F 45% 30.30 in 10.0 mi SE 4.6 mph - N/A   Clear
8:51 PM 50.0 °F - 33.1 °F 52% 30.31 in 10.0 mi Calm Calm - N/A   Overcast
9:51 PM 50.0 °F - 32.0 °F 50% 30.32 in 10.0 mi Calm Calm - N/A   Overcast
10:51 PM 48.0 °F - 33.1 °F 56% 30.32 in 10.0 mi Calm Calm - N/A   Scattered Clouds
11:51 PM 45.0 °F - 32.0 °F 60% 30.32 in 10.0 mi Calm Calm - N/A   Clear